Theta_e
319 319 318 318 318 318 318 319 319 316 316 311 307 309 301 299 295 302 304 307 305 300 292 294 293 292 294 295 295 294 292 292 293 292 290 291 291 289 289 289 287 286 288 286 284 285 284 283 283 283 285 285 288 286 287 286 285 284 280 283 282 289 275 273 279 278 277 277 277 278 278 279 279 278 277 278 278 281 281 281 279 275 276 273 274 271 276
318 318 318 318 318 318 318 318 318 316 314 311 309 304 301 300 298 297 305 307 304 296 285 286 289 292 294 295 294 295 294 293 289 293 293 291 288 290 289 288 291 290 288 287 286 286 284 285 285 286 285 285 282 279 284 287 287 288 285 286 286 279 279 278 273 271 277 276 275 277 276 277 274 275 278 280 282 281 279 278 279 274 278 275 275 272 278
317 317 317 317 318 318 317 317 317 316 316 314 310 302 303 301 302 299 301 304 302 292 292 286 287 290 291 291 290 292 293 295 296 294 293 294 288 288 288 292 288 288 286 288 288 287 289 286 286 288 284 286 282 280 282 285 285 286 285 292 288 283 280 279 272 273 272 272 270 271 271 276 275 275 276 279 278 279 276 275 276 273 277 278 275 275 282
317 316 316 317 317 317 316 316 316 315 315 313 310 305 302 297 290 297 295 299 298 297 298 293 289 286 287 287 290 292 290 292 295 296 294 295 291 293 290 289 290 289 286 286 287 287 287 287 284 284 283 283 280 280 278 281 283 286 292 289 288 277 279 281 283 280 279 282 283 281 279 274 274 275 276 277 278 280 280 279 276 274 278 277 278 279 280
318 317 316 316 316 316 316 316 315 314 313 312 310 306 302 299 292 293 286 296 294 293 296 293 294 288 291 285 288 288 290 291 290 296 291 294 293 291 293 288 287 286 288 287 287 288 288 287 285 283 283 282 278 280 279 281 284 290 287 288 279 275 278 281 282 284 285 286 286 284 282 281 281 279 277 277 277 278 278 276 275 281 276 273 280 282 280
318 317 317 316 316 316 316 316 315 314 313 312 311 301 302 293 296 298 297 292 286 289 289 294 293 293 292 289 289 287 288 289 287 290 294 291 293 291 288 290 292 290 289 289 286 287 286 286 285 283 283 281 280 281 282 280 284 286 283 284 284 280 281 285 281 281 284 286 286 283 280 280 282 283 283 277 277 277 276 277 280 281 277 276 282 284 281
318 318 317 317 316 316 316 316 315 314 313 313 309 300 302 301 295 297 301 292 292 292 293 295 293 292 292 289 290 287 287 287 290 289 287 292 289 293 287 289 291 291 290 290 287 288 283 283 286 286 286 287 282 278 280 282 279 282 281 283 279 280 280 284 282 283 284 283 283 283 281 281 281 282 282 281 278 277 278 279 281 280 280 281 282 282 281
318 317 317 317 317 316 317 316 315 314 313 312 306 304 300 297 296 291 298 296 293 293 293 293 292 289 292 288 288 288 287 286 289 289 291 288 290 294 290 290 290 291 291 290 288 289 289 289 286 288 288 286 285 281 284 279 277 278 280 281 280 284 282 286 281 280 281 283 282 281 281 281 280 282 282 282 282 282 281 280 281 281 280 280 280 279 279
314 316 317 317 317 317 316 316 315 314 313 306 304 304 306 305 304 300 294 291 293 292 292 292 291 288 289 288 289 289 288 288 290 290 295 292 290 291 290 293 291 291 291 290 290 293 292 291 291 292 289 287 289 287 284 283 279 279 278 281 279 283 278 278 279 279 280 282 280 279 279 278 278 278 279 280 281 279 281 279 282 280 278 279 278 276 277
312 312 312 315 316 317 316 316 315 314 313 307 305 302 308 306 303 304 298 291 294 291 292 292 291 286 290 290 290 290 289 291 291 288 294 295 295 294 294 294 292 289 290 290 292 294 295 295 295 294 292 290 287 292 287 287 285 279 280 282 280 282 279 278 278 277 278 278 277 276 276 276 276 277 280 280 280 282 283 283 283 282 282 278 275 277 282
310 311 312 312 312 314 316 316 315 314 312 307 305 304 306 304 302 301 300 291 292 294 292 290 290 290 293 293 291 292 291 291 292 287 287 293 294 295 295 294 292 291 290 293 294 294 292 289 284 287 286 285 285 284 285 287 287 283 281 280 278 280 281 280 282 276 275 272 274 275 274 272 275 283 285 283 280 280 279 280 281 282 282 280 282 283 284
309 310 310 311 312 313 313 314 315 314 312 312 311 307 309 309 307 303 297 290 290 295 292 289 290 291 292 293 293 290 290 290 290 293 289 291 293 296 295 294 294 289 291 290 288 289 290 290 289 287 285 283 282 282 284 285 285 285 285 284 280 281 281 279 281 276 272 273 274 272 270 274 281 276 279 281 283 282 281 281 282 282 282 282 281 282 282
308 308 309 310 310 311 313 314 314 315 313 313 312 307 310 311 306 302 299 295 289 292 290 291 293 293 293 292 291 291 292 292 293 293 293 292 290 290 294 294 292 294 291 292 292 293 290 287 285 285 282 283 282 283 282 282 284 284 282 284 283 280 280 279 278 275 273 269 272 268 272 281 282 277 277 281 279 279 278 277 280 281 281 282 280 282 283
306 307 308 309 310 310 311 313 313 314 314 313 310 310 311 310 304 302 300 294 290 295 294 294 294 292 292 291 291 291 292 292 292 293 291 294 292 292 292 295 295 293 292 294 293 291 285 286 286 285 284 283 283 282 286 282 283 283 282 282 285 284 282 280 276 280 274 274 273 275 281 279 282 283 277 277 277 276 277 275 280 283 281 281 281 281 282
305 306 306 307 308 309 310 311 312 313 314 313 312 311 311 310 308 305 303 300 291 293 295 289 292 294 294 293 293 291 291 291 290 290 293 294 292 294 294 290 286 292 294 293 288 289 287 283 278 282 281 282 278 281 282 279 281 283 283 283 284 285 282 282 280 277 281 275 273 273 274 272 278 280 279 279 281 280 279 277 276 281 280 281 281 280 281
304 304 305 305 306 307 308 310 311 312 312 313 312 310 310 312 311 308 304 299 296 287 292 297 297 296 294 294 294 291 290 291 290 290 289 289 291 289 286 286 286 289 292 291 289 288 285 285 283 283 280 282 284 280 277 277 276 280 282 283 283 283 284 283 282 278 276 274 272 273 272 276 283 276 277 278 278 279 276 273 273 280 280 280 281 280 280
302 303 303 304 305 306 307 308 309 311 312 312 309 310 309 313 311 308 304 302 299 292 299 299 299 298 296 293 294 292 293 290 291 287 287 288 290 290 283 285 288 289 291 290 286 287 285 285 286 285 285 286 281 281 277 275 274 274 280 281 281 280 279 279 276 277 277 276 274 272 277 277 277 277 277 277 278 280 277 271 274 278 277 278 279 279 278
301 302 302 303 303 304 305 306 307 308 309 311 309 307 308 312 312 310 305 301 297 296 301 301 298 295 294 295 294 296 295 292 292 291 291 288 287 286 286 286 286 288 289 289 288 286 285 285 283 283 282 286 284 283 278 279 273 274 273 276 274 276 275 279 274 277 277 278 275 277 277 283 278 276 277 278 279 279 269 270 282 278 277 276 278 279 278
300 301 301 301 302 302 303 304 305 306 307 308 308 306 305 308 310 311 306 302 299 293 302 305 304 299 301 303 299 299 297 297 295 291 287 286 287 289 287 287 289 285 288 286 289 286 285 285 288 286 284 282 282 282 284 279 279 277 277 274 273 274 276 274 277 275 275 276 274 275 278 283 279 279 278 280 279 269 273 282 280 278 277 277 279 278 278
298 299 300 300 301 301 302 303 304 305 305 306 305 300 303 308 308 309 304 299 301 299 301 302 302 299 303 299 297 296 295 295 296 293 288 287 288 289 288 285 288 286 286 287 284 287 285 284 286 286 284 284 283 285 281 284 281 275 277 280 278 276 274 272 274 276 275 275 272 271 269 280 282 279 277 281 278 280 282 277 277 279 279 278 278 278 277
297 297 298 299 300 301 301 301 302 303 304 305 304 300 298 305 306 306 307 304 300 295 298 305 304 303 303 302 302 302 299 295 295 293 293 293 290 291 283 284 287 287 284 287 282 284 286 285 286 285 286 286 284 282 278 283 278 282 280 280 280 282 274 273 276 280 271 273 270 271 280 281 282 280 276 279 284 285 279 281 278 278 278 278 278 277 278
296 297 297 298 298 299 299 300 300 301 302 303 303 300 295 299 303 305 305 303 298 296 296 301 306 305 306 307 307 307 305 303 302 302 297 291 290 293 292 289 288 288 288 288 284 284 285 285 285 280 282 283 284 283 285 278 277 282 281 283 277 284 281 281 278 281 276 275 279 284 280 281 282 284 286 283 285 280 280 282 280 278 278 278 279 278 277
296 296 297 297 298 298 298 299 299 300 301 301 300 297 294 296 298 301 301 295 296 296 295 294 296 296 298 305 309 308 308 309 307 305 303 295 289 291 291 288 288 291 289 291 289 290 289 288 285 288 286 286 283 283 284 285 282 279 277 284 286 285 287 283 283 281 285 286 287 281 279 280 281 283 281 281 282 279 281 281 279 279 279 278 278 279 278
296 296 296 296 297 297 298 298 298 298 299 300 299 296 294 297 298 298 297 295 290 286 289 293 293 292 295 297 303 308 308 306 307 307 307 303 293 289 291 291 291 288 285 290 295 292 289 288 286 288 285 286 286 283 281 279 283 284 281 281 284 283 284 284 283 283 281 278 287 285 283 280 281 282 282 280 282 280 280 280 280 280 279 279 280 279 278
296 296 296 296 296 296 296 297 297 297 297 297 298 298 297 296 298 298 292 285 285 286 282 287 291 297 302 305 306 304 307 309 309 308 307 305 302 295 290 294 297 294 291 292 290 288 287 285 282 284 283 288 288 283 288 285 283 286 280 283 281 281 286 282 284 283 282 284 286 284 286 283 282 282 281 281 279 280 280 280 281 281 280 280 280 279 278
295 296 296 296 296 296 296 296 296 296 297 297 296 294 292 292 296 298 296 294 292 287 282 282 286 293 294 296 296 302 307 308 307 307 306 305 305 304 301 298 292 294 292 290 290 290 289 287 286 287 286 286 293 286 286 288 286 287 285 285 288 286 284 279 283 281 284 287 284 279 282 282 281 281 282 283 282 281 280 280 280 280 280 279 278 280 278
295 295 295 296 296 296 296 296 296 296 296 296 294 294 294 294 296 295 292 291 287 282 284 282 286 290 287 290 295 301 302 305 306 306 305 305 304 304 303 300 294 292 291 288 289 291 291 289 288 285 288 287 291 288 289 286 285 283 284 286 285 283 281 283 282 279 280 281 284 283 278 280 282 281 282 283 282 281 280 280 279 279 279 278 277 277 278
295 295 295 295 295 295 295 295 295 296 296 296 295 293 295 294 295 296 297 295 289 282 284 285 285 286 291 289 291 294 295 298 302 304 304 304 304 303 302 300 297 291 290 290 285 286 287 285 284 288 287 285 287 284 288 285 285 282 285 286 287 285 286 284 281 282 281 286 288 287 287 287 288 285 284 283 283 281 279 279 279 279 279 278 278 276 275
295 295 295 294 294 294 295 295 295 295 296 295 292 292 292 294 295 297 297 297 295 288 286 286 288 287 283 287 295 291 294 295 297 300 301 302 302 302 301 300 298 295 293 292 291 290 287 288 291 287 284 288 289 284 286 278 282 281 285 289 288 288 291 289 288 288 289 289 286 288 286 285 287 283 283 283 283 282 281 281 281 280 279 279 278 277 276
294 294 294 295 294 295 294 294 295 295 295 292 289 286 283 285 293 293 296 296 295 293 284 283 281 284 291 290 289 289 290 292 294 296 297 299 300 300 301 300 298 297 295 292 291 288 289 289 289 288 286 292 289 284 286 285 284 284 289 290 289 289 289 291 291 288 288 284 281 286 287 287 283 281 283 283 283 283 282 281 280 280 279 279 278 278 278
294 294 294 294 294 294 294 294 295 295 295 290 286 280 279 276 285 295 296 297 298 292 286 286 283 287 289 285 287 289 290 291 291 292 294 297 298 300 302 301 300 298 293 292 291 291 292 287 285 287 287 291 291 285 284 284 283 285 288 289 289 289 289 289 291 290 287 281 281 282 282 281 281 282 281 282 282 282 282 282 281 280 279 278 278 278 277
294 294 294 294 294 294 294 294 294 294 291 288 284 282 283 285 290 294 296 295 296 288 283 280 280 283 282 284 286 286 290 291 291 291 291 294 294 298 298 299 296 299 296 293 292 291 290 289 288 287 286 289 292 278 283 284 283 285 289 289 290 290 290 290 290 289 283 282 282 281 280 280 281 282 281 281 281 282 282 281 279 279 278 277 274 274 274
295 295 295 294 294 294 294 294 295 293 289 291 294 295 295 295 296 295 295 293 291 285 286 282 277 280 281 280 285 283 286 288 287 289 288 294 291 294 293 295 296 294 297 294 285 285 286 289 286 286 287 291 285 277 283 282 284 289 290 290 290 290 289 290 290 288 283 283 287 284 281 280 280 283 283 282 282 281 281 279 277 274 272 270 270 269 268
295 295 293 293 294 294 293 294 295 294 293 289 284 286 289 294 294 295 294 292 286 287 286 281 277 278 278 285 282 280 288 283 283 288 284 291 287 291 291 293 292 290 289 292 288 288 279 285 283 286 287 284 284 280 277 283 288 288 289 290 290 287 285 286 285 282 282 283 287 288 286 283 282 280 279 280 279 279 278 275 273 272 272 271 270 269 267
294 294 294 293 293 293 293 292 289 288 283 284 284 287 290 294 295 296 295 289 280 280 280 281 282 276 276 276 277 280 287 282 282 287 285 286 292 286 288 289 283 287 283 293 283 285 283 284 286 285 279 285 283 276 281 286 286 287 288 289 286 282 282 281 279 282 282 283 282 281 280 279 278 278 279 278 276 274 273 273 274 273 271 271 268 266 266
293 293 293 293 293 291 289 288 285 283 280 280 282 289 293 294 295 294 293 291 286 280 279 277 279 276 278 275 275 280 287 279 282 284 280 284 282 281 284 282 280 284 289 290 279 285 284 285 287 279 286 283 277 281 285 287 287 287 287 288 287 284 283 285 281 280 280 281 281 279 278 279 279 278 277 276 274 273 273 272 273 273 272 269 266 265 266
293 293 293 290 287 284 278 279 284 283 281 286 289 293 294 293 290 290 288 286 287 288 281 278 276 275 278 277 282 282 284 275 284 281 278 282 277 283 277 278 277 284 284 269 278 282 285 289 286 280 283 281 281 287 287 287 288 287 287 288 286 283 283 283 281 280 279 277 276 277 277 278 278 277 275 272 271 272 272 272 271 272 271 269 265 265 265
293 291 286 283 280 275 274 275 276 284 292 290 290 286 282 284 278 280 281 280 283 285 281 281 275 278 282 279 276 285 285 277 285 276 277 281 280 272 278 278 278 286 278 274 279 285 281 282 275 276 281 286 286 286 287 287 288 288 284 283 282 283 283 281 280 280 277 274 273 274 276 277 277 275 274 271 271 271 272 273 273 274 272 269 266 266 264
290 285 283 281 277 274 273 272 287 292 288 286 283 277 275 280 277 273 275 279 278 275 279 279 275 280 279 277 279 288 285 279 281 275 275 282 278 267 280 271 276 281 270 277 277 287 276 275 276 275 276 282 285 284 287 287 285 282 282 283 283 283 282 281 282 280 279 279 279 278 279 278 277 275 275 272 271 272 273 273 272 272 271 268 267 265 264
282 278 278 275 275 277 284 287 291 286 282 275 277 275 270 276 273 270 280 274 272 277 279 274 280 280 280 278 277 278 287 282 278 276 277 277 284 274 279 278 273 281 267 275 276 287 272 272 276 274 273 280 283 285 287 281 280 280 282 282 282 282 283 282 282 283 283 283 282 281 282 282 281 278 275 273 271 271 270 270 271 270 269 267 265 264 263
278 277 277 276 278 278 280 283 282 278 275 272 271 272 269 269 274 274 274 271 272 274 281 278 281 279 281 283 281 277 286 284 276 279 278 274 280 277 271 272 279 276 266 274 277 275 270 273 272 276 276 282 283 284 283 279 280 279 280 281 282 282 282 282 282 283 283 283 282 281 281 281 279 277 276 274 273 272 271 270 269 268 267 265 264 264 263
282 278 275 278 281 281 280 278 277 275 275 275 269 265 269 269 273 269 269 268 270 273 274 278 277 279 279 282 282 285 280 279 279 278 275 273 282 274 271 275 271 266 266 274 274 268 273 269 268 272 276 282 282 279 278 278 279 278 278 280 281 281 281 282 281 282 283 282 281 280 280 279 277 276 275 274 273 273 272 270 268 267 266 265 264 262 261
290 288 285 281 280 277 279 272 276 274 267 267 266 265 269 265 268 268 270 274 276 274 274 282 279 284 281 280 275 278 278 282 274 274 276 270 281 273 270 272 272 266 269 277 270 270 272 268 269 275 282 280 279 278 278 278 278 278 279 280 281 282 282 281 282 281 282 282 280 279 278 278 277 277 276 275 274 273 271 270 268 267 265 264 263 261 260
283 283 276 277 275 275 275 264 275 270 267 268 265 262 264 263 267 270 266 270 273 273 277 278 279 280 277 283 278 277 276 279 281 275 271 275 270 268 274 268 269 274 275 264 270 270 270 273 274 274 273 273 277 277 277 278 278 278 279 280 281 281 281 281 281 280 280 280 280 279 278 278 277 275 275 274 273 271 269 267 266 266 264 263 261 260 259
277 275 274 271 268 272 269 264 276 269 265 267 271 267 267 264 267 269 271 274 274 273 279 278 278 280 279 277 275 276 281 273 284 273 272 275 267 271 269 265 273 269 267 267 271 268 269 270 273 270 270 273 274 276 278 279 279 280 280 280 281 281 280 279 279 280 279 279 278 277 276 276 274 273 273 272 272 271 268 265 264 263 262 261 260 257 257
275 272 271 268 266 270 268 264 267 261 267 270 270 270 270 272 272 273 275 272 273 278 279 279 277 278 278 278 277 277 277 274 273 272 276 273 270 268 272 274 272 265 268 269 266 266 271 273 272 272 274 275 276 277 278 279 280 278 279 278 279 279 280 280 280 280 279 278 277 276 275 274 273 271 271 270 269 268 267 265 264 263 261 259 256 256 257
274 274 270 269 266 268 269 262 265 267 268 269 273 273 273 275 277 278 279 278 279 280 278 277 277 279 277 276 274 274 274 275 272 276 273 267 268 272 276 268 267 270 267 265 267 268 269 270 272 274 276 276 277 278 279 279 279 279 279 279 278 278 279 279 278 278 277 277 276 274 273 272 271 270 267 266 265 265 264 263 263 262 261 259 257 257 256
271 275 270 264 265 268 265 267 269 271 272 273 274 277 278 279 277 276 278 280 281 281 279 278 276 277 277 280 277 273 274 275 273 273 274 271 273 266 268 268 265 269 269 267 268 269 268 270 274 276 277 278 278 278 277 277 277 278 278 278 278 277 277 277 277 276 274 274 274 272 271 269 267 266 266 264 261 261 262 261 261 260 259 257 256 256 255
274 270 266 265 268 268 267 269 269 269 272 273 274 275 275 275 275 277 280 281 279 279 281 279 278 278 274 278 275 275 271 276 270 271 272 268 267 266 268 264 267 265 269 267 265 270 271 273 275 276 276 276 276 276 276 275 274 274 274 275 276 276 276 276 275 274 273 273 272 269 267 265 265 264 261 260 260 259 260 260 259 258 257 256 255 255 255
273 272 272 268 267 268 269 270 269 268 270 271 272 273 276 276 277 279 282 279 280 280 281 282 283 278 277 275 270 273 272 274 272 274 268 268 268 268 267 263 268 268 268 269 268 267 262 259 262 267 268 267 268 269 271 271 271 268 266 267 269 271 272 272 270 269 270 269 268 265 263 263 262 261 261 260 257 257 257 257 256 256 256 256 255 255 255
277 272 270 273 269 269 269 266 266 267 268 270 272 273 275 275 277 278 283 280 280 279 278 276 278 275 273 272 272 268 270 275 272 270 270 269 270 268 267 267 268 268 267 267 263 258 256 255 255 255 256 257 260 261 262 262 262 262 263 264 264 265 265 266 265 263 262 261 261 262 262 261 260 259 257 256 256 255 254 254 254 254 254 255 255 255 254
272 268 267 269 272 272 272 272 272 271 271 272 273 276 275 273 274 271 273 277 279 276 275 277 274 273 271 270 272 272 273 271 271 271 268 268 267 266 266 263 259 258 257 256 256 255 254 253 254 254 254 255 256 257 259 260 259 260 260 261 261 261 260 259 259 260 259 259 259 257 255 254 255 255 256 255 254 254 253 252 253 253 254 254 254 254 254
Wind_Speed
27 27 26 25 25 25 24 24 24 23 24 12 7 8 7 12 8 4 9 11 12 10 9 5 8 11 8 2 7 3 2 6 6 6 5 6 7 3 5 8 6 6 6 6 5 7 6 8 9 5 6 6 10 3 8 9 5 5 1 2 0 7 2 1 8 3 2 1 2 3 3 2 1 6 2 4 11 15 15 12 2 5 2 3 6 11 13
28 28 26 26 25 25 25 25 24 24 27 13 10 10 8 8 5 3 4 11 8 10 13 12 14 12 4 9 12 8 6 5 3 11 8 7 4 10 6 1 11 8 6 3 7 7 6 7 9 7 4 4 2 2 6 11 9 9 9 9 7 2 5 4 5 5 7 2 3 3 1 2 5 5 8 13 8 5 1 5 3 3 14 8 8 21 19
29 28 28 27 26 26 25 25 26 27 28 19 13 9 5 3 2 5 7 9 10 15 8 6 7 13 13 11 14 9 6 10 16 8 11 9 5 2 6 12 4 6 5 7 6 6 17 6 7 8 5 5 0 6 5 8 4 3 3 2 7 5 5 8 5 9 10 12 4 5 5 11 5 3 4 7 13 12 4 6 6 14 4 12 15 19 18
27 26 26 27 26 25 25 25 24 26 27 23 12 8 6 8 6 5 7 9 9 9 3 2 6 8 10 9 12 12 15 8 10 15 12 9 5 9 2 1 7 7 4 7 9 10 7 13 2 4 3 3 1 3 5 4 5 3 0 3 9 3 2 7 12 12 16 17 12 1 5 3 6 8 12 12 12 13 11 4 7 16 11 13 25 18 23
26 27 28 27 27 29 29 26 26 28 28 25 13 7 5 4 9 8 9 4 12 14 13 7 7 8 9 8 6 20 21 13 5 14 9 10 10 6 10 3 5 6 9 11 11 10 11 9 7 6 5 2 1 3 3 1 2 4 1 1 4 2 3 11 13 18 20 18 17 9 7 12 12 11 9 10 11 12 14 16 21 13 4 19 24 14 19
28 28 29 30 30 30 29 28 29 30 31 30 14 11 7 9 8 10 12 12 12 16 16 17 12 12 14 14 5 7 15 15 15 5 11 4 10 11 2 11 19 14 15 10 9 12 10 8 12 4 4 1 2 0 0 3 2 2 1 1 3 6 11 13 7 16 18 18 15 4 4 7 13 17 13 9 13 13 21 23 23 17 13 24 29 20 20
28 30 30 29 28 29 29 29 30 32 33 29 16 13 8 8 1 8 13 12 9 23 22 25 22 24 20 10 14 17 17 20 20 9 5 8 8 19 15 18 22 17 12 13 14 14 8 10 9 8 10 14 5 2 1 5 1 1 1 2 1 2 9 9 8 16 15 14 12 8 9 9 13 21 15 6 14 21 21 20 24 22 23 28 26 26 31
27 27 28 29 30 29 29 30 32 33 34 27 16 16 13 15 12 4 11 11 8 12 11 16 20 20 21 15 19 21 21 20 9 6 12 10 16 15 22 22 16 17 17 18 19 22 20 18 16 10 14 8 6 5 9 4 2 1 5 3 3 7 11 7 3 8 14 14 6 6 8 9 19 25 14 12 19 15 18 21 25 22 21 27 27 28 31
11 15 25 28 28 29 31 31 31 32 31 16 17 13 14 2 4 4 7 10 10 7 11 13 19 16 15 19 26 14 14 21 16 13 13 23 15 15 27 27 17 13 19 22 28 27 20 16 21 16 15 17 13 12 6 12 7 5 4 2 2 7 5 5 2 6 13 5 2 1 2 6 15 24 21 19 18 18 21 18 24 18 24 25 21 18 23
9 9 9 12 20 26 27 27 28 29 33 18 12 14 10 7 0 3 4 10 8 12 9 14 12 19 21 21 22 15 23 26 13 11 14 20 18 14 21 21 15 12 21 29 31 27 20 21 20 14 8 3 1 9 3 15 15 10 12 4 7 9 5 4 4 8 14 0 5 4 1 7 17 25 26 22 24 25 20 19 21 22 19 14 16 23 23
10 10 11 10 10 11 17 24 28 33 27 18 14 13 12 14 11 7 6 9 7 15 13 14 18 19 17 17 16 19 15 15 15 19 8 10 18 13 15 19 19 18 24 27 11 5 2 3 7 5 6 2 1 1 3 9 8 13 13 5 4 4 7 7 6 7 2 4 3 4 1 10 24 2 5 16 20 21 22 25 27 23 15 18 20 22 18
12 12 13 12 12 13 13 15 22 30 26 18 17 18 18 14 13 10 10 14 13 12 14 16 21 18 17 16 21 22 25 22 18 17 21 9 14 19 16 15 13 17 5 7 12 10 9 4 8 7 7 6 3 2 3 11 9 7 12 13 9 12 11 7 4 3 4 3 5 1 8 24 2 1 2 7 13 14 21 25 25 18 16 21 22 24 22
14 14 14 13 13 13 15 15 16 20 30 22 19 18 14 15 14 13 13 14 14 15 16 20 19 20 17 16 21 24 18 12 13 16 18 19 10 6 12 15 17 14 7 9 13 11 5 4 1 1 1 3 2 3 5 8 8 8 6 3 11 11 11 5 3 3 3 3 5 3 20 10 8 5 5 2 2 4 2 16 23 21 20 18 19 25 25
16 16 15 15 15 15 15 16 16 16 21 24 16 14 9 9 12 10 10 12 15 16 19 15 16 20 24 27 19 10 10 16 17 17 19 17 21 13 6 8 6 5 10 12 9 8 1 1 7 3 5 1 4 6 12 3 8 11 12 10 4 12 7 7 7 6 10 8 11 20 12 22 30 19 6 8 9 9 11 14 22 16 10 18 18 23 22
17 17 17 17 17 17 17 17 16 16 17 22 20 19 18 12 12 14 10 14 17 14 17 20 18 26 26 20 15 15 12 14 14 16 18 12 8 11 10 2 0 7 11 9 2 3 5 4 2 7 3 5 13 15 4 4 1 6 11 8 6 9 15 10 11 9 12 10 9 4 7 13 24 4 2 5 5 5 5 2 17 8 9 12 17 19 19
17 17 17 18 18 18 19 18 17 17 16 19 13 17 18 17 11 7 7 7 5 13 17 22 25 20 18 18 20 23 19 16 15 10 7 8 14 3 2 1 1 1 5 3 5 6 4 9 13 12 14 14 5 3 7 3 2 1 1 6 6 2 1 4 15 5 6 6 9 10 11 18 12 6 4 3 6 9 6 3 17 7 15 13 15 16 11
19 18 18 18 18 19 19 20 20 19 18 17 12 10 15 18 19 15 12 11 9 13 1 10 10 13 11 10 9 15 15 16 10 10 10 15 16 7 5 2 0 5 8 6 3 6 8 11 11 12 9 4 6 8 5 2 4 1 3 6 6 7 6 6 7 11 10 11 8 11 9 16 3 8 3 6 10 7 3 6 18 3 11 8 11 12 9
21 20 19 20 20 20 20 20 20 20 19 19 14 11 9 9 15 15 15 18 19 20 16 16 14 13 15 16 17 10 5 6 8 7 11 4 5 5 6 4 4 2 2 11 8 11 13 12 15 14 17 6 2 6 13 8 7 9 9 13 7 8 2 9 18 17 16 14 9 7 10 14 9 10 8 8 5 7 3 11 20 10 10 8 10 13 11
22 22 20 18 19 21 20 19 20 21 20 20 14 12 13 13 12 13 14 16 16 16 10 19 20 19 12 7 13 9 8 13 14 11 5 4 7 6 8 2 4 6 7 11 11 12 12 13 5 7 11 6 5 12 5 8 9 5 15 8 1 3 4 3 5 9 13 12 12 14 13 12 10 10 18 12 8 3 18 13 6 13 10 9 11 11 11
22 22 21 19 18 19 20 21 20 19 19 21 13 13 11 11 11 12 13 17 13 19 14 15 14 23 15 19 16 13 8 9 10 12 10 15 6 12 5 4 4 3 2 3 10 5 10 15 13 4 10 11 10 3 1 7 7 14 8 12 12 15 12 12 13 6 3 2 9 2 11 9 26 16 7 10 9 17 6 5 1 4 11 10 7 9 10
21 21 21 21 19 19 19 21 22 21 21 21 15 10 11 8 11 12 13 14 15 17 15 15 16 23 18 23 25 23 19 21 17 18 14 13 10 12 11 11 14 11 10 11 14 14 9 14 14 8 3 7 5 4 12 12 2 8 9 11 8 11 8 6 8 9 9 12 13 14 17 7 24 24 17 17 26 10 8 9 7 4 5 8 7 6 10
20 20 21 21 20 20 21 21 20 21 21 21 21 10 10 9 9 8 10 11 14 12 6 7 15 19 20 20 21 23 24 24 23 18 15 11 8 18 8 6 11 10 5 4 3 2 3 2 2 3 6 7 2 14 13 8 11 5 3 6 6 17 17 15 15 13 12 13 17 20 5 15 22 22 17 20 24 5 9 8 10 10 7 4 8 9 8
20 20 20 21 21 21 21 22 22 22 21 21 16 8 10 10 10 8 9 13 10 12 12 14 9 9 5 13 17 21 23 21 19 18 16 11 9 10 9 8 10 6 3 6 15 15 14 12 14 9 12 9 14 13 12 14 10 7 13 15 9 2 14 5 4 8 16 14 14 5 2 10 18 17 2 1 6 4 6 9 8 7 9 9 9 9 11
21 20 20 21 21 21 22 22 23 23 24 23 15 9 10 9 10 9 8 8 8 11 12 9 8 13 13 20 19 20 20 19 21 22 20 21 17 10 6 7 2 2 3 11 12 12 6 4 4 4 13 7 7 10 11 11 16 10 5 3 9 5 5 8 10 2 8 14 23 19 18 8 16 19 10 2 5 9 8 7 9 7 9 9 6 10 11
21 21 21 21 21 21 21 21 22 23 24 26 20 11 10 10 7 7 9 10 4 4 11 4 11 8 10 12 15 19 19 20 23 25 21 19 22 18 21 24 21 20 21 18 6 4 3 7 5 5 15 8 12 14 11 14 8 10 12 10 4 6 11 8 17 13 14 24 12 5 11 14 17 15 14 15 8 10 7 6 7 10 10 12 10 6 9
22 22 22 22 21 21 22 22 22 23 23 25 21 11 10 11 10 11 10 9 8 5 11 12 13 9 6 6 11 12 13 20 22 23 24 23 24 25 21 8 2 2 2 4 7 13 11 8 6 7 11 9 13 12 13 19 8 8 17 18 13 5 14 12 14 12 17 24 12 5 4 6 10 13 14 15 13 12 9 7 8 9 11 7 4 8 11
23 23 23 23 23 22 23 23 24 24 24 23 15 10 11 11 11 12 11 9 9 11 9 15 10 8 1 9 5 5 7 12 17 23 25 26 25 22 21 17 13 12 12 7 7 14 10 10 9 14 12 9 11 11 8 8 10 9 11 8 8 8 15 6 8 10 17 22 23 12 8 10 13 18 23 18 13 12 12 9 9 11 12 11 11 5 4
24 23 23 23 23 23 23 24 24 25 24 24 16 12 11 12 12 11 11 11 12 14 11 12 5 3 7 14 7 12 11 8 11 17 21 24 25 24 23 23 16 12 13 14 8 8 11 13 16 6 3 0 7 9 9 1 2 2 9 13 16 19 20 13 15 17 22 23 20 15 17 18 13 14 17 14 12 14 16 17 16 13 13 14 13 11 7
24 25 24 24 23 23 23 23 24 24 25 20 11 12 12 13 12 13 12 12 12 14 11 11 8 8 12 7 5 12 11 10 11 13 16 19 22 24 23 23 20 17 16 16 15 13 14 15 9 11 9 8 7 6 8 11 12 16 18 20 19 18 21 25 27 26 23 15 9 13 14 16 14 8 14 16 16 17 19 17 15 15 14 13 14 16 15
25 25 25 25 24 24 24 23 24 24 22 11 8 6 10 11 9 11 11 12 11 8 12 12 14 7 3 7 12 3 7 12 13 14 16 17 18 17 17 18 18 16 15 15 14 16 14 10 11 4 2 11 13 6 12 11 15 16 11 17 21 22 22 22 22 21 17 7 4 9 14 13 5 9 13 16 17 18 16 15 14 13 13 15 15 12 13
25 24 25 25 25 23 23 23 22 22 19 8 5 8 8 10 3 8 5 1 2 8 7 8 14 4 11 3 4 13 14 11 13 15 17 18 17 18 18 17 17 15 16 13 12 18 9 13 10 11 8 17 13 9 12 11 15 8 14 20 22 23 24 24 19 12 8 3 3 3 3 4 6 5 6 12 12 13 11 10 12 14 15 13 14 14 10
24 25 24 24 24 24 23 24 23 20 10 8 10 10 5 6 5 11 15 9 1 5 5 8 8 6 5 4 4 7 13 15 11 7 6 5 15 14 16 16 15 14 18 17 14 9 15 8 11 14 16 15 14 3 7 11 17 15 14 21 20 20 20 19 18 15 5 9 10 6 3 4 8 16 11 11 13 13 14 13 12 11 14 10 6 5 7
23 23 24 24 24 23 23 23 24 16 9 13 21 24 25 32 30 24 16 16 10 4 1 8 10 6 6 6 4 4 1 3 7 10 13 11 13 9 17 13 12 11 7 10 5 7 2 9 6 13 10 12 10 4 11 17 18 15 19 19 19 18 17 16 15 12 11 12 14 16 14 14 12 9 7 14 14 13 12 12 11 11 11 11 12 11 10
23 23 24 24 23 23 22 22 21 23 18 10 10 11 12 18 19 24 15 9 7 4 5 7 6 9 9 3 7 7 6 6 9 13 14 11 3 10 13 9 12 14 8 16 4 3 2 1 9 6 8 11 4 5 11 14 13 20 20 20 16 8 8 9 9 11 12 13 13 14 11 9 7 6 9 11 10 7 8 11 14 15 12 13 12 13 14
22 22 23 22 22 21 22 20 9 5 8 9 11 10 11 17 18 16 15 8 8 7 5 6 6 10 9 5 13 8 3 4 8 9 15 6 11 11 7 11 1 13 7 3 5 7 8 10 9 9 12 7 10 12 7 11 20 22 20 19 10 8 6 7 6 13 14 12 8 4 10 14 14 11 12 12 12 12 14 13 15 17 14 11 13 13 12
22 22 21 20 17 13 7 6 3 5 4 6 11 10 17 18 20 15 13 11 9 6 10 8 6 12 8 12 9 4 3 5 2 4 3 1 1 2 3 4 11 10 3 10 8 8 10 9 8 15 10 13 19 14 15 20 23 23 21 22 18 16 14 17 12 10 8 8 8 8 10 12 16 14 12 12 13 12 14 14 11 15 17 14 14 12 9
23 20 16 9 4 1 3 4 3 5 7 6 10 16 21 17 9 9 8 7 7 6 9 7 11 14 10 12 3 3 0 7 5 8 3 6 6 1 5 7 12 4 4 2 3 11 10 7 12 13 13 19 15 11 18 17 18 19 19 18 11 9 9 9 14 16 12 8 8 8 10 11 10 10 11 12 14 13 14 16 18 17 18 19 15 14 14
18 15 2 1 0 1 4 3 3 4 8 11 11 8 3 2 4 3 4 8 7 7 7 8 17 11 8 11 15 4 3 8 3 3 2 2 3 5 3 3 7 7 15 7 8 5 3 5 6 8 12 6 1 9 13 12 15 12 7 7 12 14 14 13 16 18 16 9 5 8 7 10 11 10 14 13 14 16 17 16 14 14 14 16 18 16 12
8 1 1 2 2 4 5 6 4 16 11 6 1 1 2 1 1 3 3 5 2 8 7 11 16 12 14 16 13 8 13 6 11 5 7 6 5 6 3 6 7 4 6 3 7 8 6 5 2 3 11 6 9 10 12 15 8 6 8 12 14 14 13 15 19 23 22 21 21 21 21 19 18 15 12 14 12 11 12 12 12 12 14 14 15 14 16
2 1 2 2 6 9 6 5 10 6 2 3 1 2 3 3 6 7 5 6 3 6 3 13 11 14 18 21 17 17 5 8 17 11 7 4 0 5 3 4 5 4 7 7 7 9 7 9 6 6 11 8 15 11 15 7 8 8 10 12 12 14 16 17 15 15 19 16 18 21 19 17 18 19 17 16 16 14 10 10 11 10 12 14 16 18 19
2 1 1 5 6 2 2 1 2 0 1 2 1 1 1 6 5 2 2 6 8 6 5 8 8 13 12 15 17 19 10 4 2 1 5 10 3 3 3 5 5 6 5 5 3 4 3 2 3 11 12 12 17 17 12 8 10 9 9 11 13 13 15 17 17 15 14 11 10 12 12 11 12 13 14 18 17 17 16 14 13 11 12 13 16 13 11
7 7 4 1 1 2 2 1 2 2 1 2 2 4 4 3 2 1 2 7 8 3 5 6 12 14 16 18 17 15 8 3 3 3 3 6 5 4 5 1 2 2 4 2 4 3 2 4 3 4 4 12 11 6 10 12 11 10 10 13 13 14 15 16 16 14 15 14 13 13 12 12 14 14 15 16 15 16 15 14 13 13 14 11 11 13 14
12 10 4 3 1 1 1 4 3 3 3 2 2 4 3 3 5 7 5 2 1 3 6 4 5 2 5 2 2 2 5 2 5 5 5 6 0 4 2 3 2 4 6 1 4 4 5 5 6 9 9 9 8 10 11 11 8 9 11 12 13 14 16 16 18 18 15 14 15 14 13 14 15 15 15 16 15 12 11 13 16 15 12 14 14 14 15
2 1 0 1 2 3 1 7 3 2 3 2 3 6 5 7 7 3 2 5 2 5 6 11 10 10 13 6 8 4 2 2 1 1 1 1 4 3 2 4 6 4 3 4 1 5 6 2 6 2 3 5 7 8 10 11 12 12 12 14 16 18 20 20 15 13 12 9 9 10 11 12 12 10 11 12 16 18 13 10 9 12 13 14 14 14 13
2 1 1 1 1 2 2 5 1 2 6 6 6 7 5 10 10 6 10 3 2 8 7 7 6 9 12 3 2 2 3 4 2 5 5 4 2 3 3 5 1 3 4 4 1 0 2 5 4 3 3 5 7 10 14 15 17 19 20 20 20 18 15 15 15 14 13 12 13 12 12 11 12 12 12 12 10 13 18 16 14 14 13 14 13 16 14
4 4 3 3 6 3 2 4 1 4 2 2 6 8 9 10 9 10 5 1 5 8 12 12 6 6 10 5 5 6 3 3 4 4 2 2 5 5 4 0 3 3 1 1 2 5 7 3 2 6 6 9 10 9 9 10 7 3 5 11 11 11 12 13 12 13 12 11 11 12 12 12 12 12 11 10 11 10 10 14 16 17 15 15 19 19 15
1 1 1 1 3 3 2 4 5 5 3 5 8 8 8 9 9 10 9 5 12 11 11 7 5 5 4 3 3 2 2 2 4 3 4 2 4 1 2 5 2 3 4 4 4 6 4 2 4 5 7 9 8 9 10 8 6 7 8 6 8 10 10 11 11 11 10 11 11 11 11 12 11 10 11 11 7 8 11 13 13 14 17 19 17 14 15
4 1 3 2 4 2 9 7 5 7 8 10 11 10 10 9 11 14 13 9 11 10 12 7 5 2 5 5 1 4 1 1 3 2 2 3 2 3 1 1 3 2 3 6 5 1 2 3 6 7 7 4 4 6 4 5 5 7 7 8 8 9 9 10 9 9 10 12 12 12 11 11 13 13 13 13 11 9 10 11 13 12 12 14 15 15 16
2 2 3 3 2 2 5 5 5 10 10 8 9 10 12 13 15 15 12 8 9 12 12 10 5 3 4 2 3 2 3 3 3 3 3 1 4 5 4 5 5 4 3 3 2 0 3 9 9 7 7 7 4 1 1 1 2 2 2 4 5 7 7 8 9 9 9 10 11 12 11 11 12 12 12 12 14 10 9 11 12 11 13 16 17 17 16
2 3 1 3 5 7 5 7 9 14 13 11 10 12 10 11 12 14 9 10 10 9 6 6 3 4 2 1 1 1 1 0 2 1 3 3 3 1 3 2 3 3 1 2 3 6 8 9 10 11 11 12 13 11 8 5 4 5 4 4 5 5 5 8 8 8 8 9 11 12 13 12 11 12 14 14 13 14 12 10 10 12 12 12 15 16 16
2 3 4 6 10 11 2 7 10 13 13 11 10 11 10 12 13 13 9 7 6 6 7 7 5 3 2 1 1 2 3 1 3 2 2 1 0 1 2 3 1 3 3 4 6 5 7 8 8 7 10 11 10 11 10 7 5 5 5 7 7 8 9 10 11 11 11 10 12 13 12 9 9 10 11 13 15 16 16 11 8 9 11 10 10 13 14
2 4 4 4 8 10 11 11 11 13 15 14 12 8 6 8 7 9 13 14 9 8 9 5 2 2 2 5 3 1 1 2 2 3 2 3 4 3 2 3 5 6 6 7 7 6 7 7 7 9 8 8 9 9 8 6 7 7 7 7 8 9 11 12 11 11 11 11 10 11 13 13 13 13 12 16 20 22 20 14 8 9 10 9 9 9 11
Wind_Direction
213 212 210 208 205 202 198 195 192 185 162 162 180 146 197 194 217 24 151 180 175 164 226 214 204 224 233 277 288 263 291 231 200 207 207 225 210 237 231 202 199 240 201 209 213 173 228 174 206 203 220 232 203 228 171 137 154 88 351 46 250 79 126 262 273 321 39 69 340 3 36 76 340 258 191 137 202 196 208 231 150 201 217 156 243 239 251
213 210 210 209 206 203 199 194 191 179 169 171 151 182 198 194 166 144 198 197 212 177 204 207 209 224 227 217 239 225 239 225 224 218 200 196 175 209 215 355 205 233 190 162 214 174 246 219 185 253 190 241 129 338 189 176 174 157 214 159 208 125 252 155 284 346 323 336 355 318 309 52 231 217 206 211 220 219 279 76 117 266 232 174 214 253 268
213 210 208 207 206 204 201 196 190 181 179 172 164 189 166 132 132 154 176 202 207 209 204 211 199 214 215 212 229 228 245 225 224 207 217 212 202 161 232 216 149 218 149 206 217 194 206 259 218 212 191 221 30 336 166 224 224 262 280 203 160 178 185 143 196 230 263 270 235 233 235 216 219 240 214 213 202 209 121 244 218 240 212 186 233 252 266
216 211 208 207 205 205 202 199 191 183 183 176 177 173 165 182 196 156 183 189 211 258 273 257 207 202 203 223 235 225 236 244 218 213 235 206 219 219 238 273 186 210 166 215 218 230 242 217 227 183 220 229 314 209 338 204 220 252 180 198 145 176 189 192 206 207 233 245 261 291 125 89 211 228 204 206 206 206 210 228 235 235 241 241 245 246 275
215 210 209 208 206 204 201 195 189 186 184 181 181 201 196 152 210 163 187 148 218 220 210 202 196 214 162 211 187 220 221 225 254 188 227 205 210 236 226 199 180 214 194 210 231 225 228 235 242 210 178 254 239 296 223 24 217 203 134 208 72 75 225 231 219 227 236 242 250 240 165 239 244 238 219 195 193 190 197 210 233 230 260 257 259 236 249
215 211 210 209 207 205 201 195 190 187 185 182 181 202 179 215 218 189 173 166 191 205 208 207 203 219 188 224 198 225 212 208 225 182 216 173 192 214 249 219 219 206 193 196 225 223 225 209 228 195 228 101 250 344 218 213 267 162 274 281 177 163 222 234 186 240 245 244 252 207 222 235 255 257 251 179 193 189 207 222 235 233 225 249 265 267 255
219 215 214 213 210 208 204 197 192 188 187 182 191 199 216 235 0 211 168 218 180 201 192 192 201 214 206 234 223 236 219 213 209 184 171 200 212 200 223 220 217 211 194 193 226 220 214 238 233 206 214 210 160 203 357 257 167 157 140 154 177 127 241 247 187 243 245 250 250 239 231 257 266 259 250 209 199 212 219 233 240 230 239 249 262 270 268
228 219 217 215 213 211 208 203 195 189 186 186 197 206 188 211 192 204 191 216 187 198 192 194 197 218 206 217 225 225 223 228 198 189 179 204 218 200 220 228 213 203 207 208 222 221 212 207 221 216 211 229 185 219 192 124 36 127 193 162 278 164 255 210 162 248 261 257 232 231 237 251 263 264 258 235 243 237 232 240 252 250 251 256 256 261 268
322 264 233 220 217 216 215 211 200 189 180 203 200 210 220 242 215 135 165 203 211 184 180 186 196 209 211 217 231 230 222 238 203 212 202 207 203 186 214 220 215 201 211 218 227 227 218 211 227 213 175 211 202 182 240 153 157 171 163 153 259 179 264 66 104 245 263 276 129 319 14 300 270 273 265 244 243 247 240 232 239 230 239 245 255 261 260
305 317 322 286 250 231 222 217 205 193 181 193 199 222 213 239 97 176 135 215 181 204 183 205 187 220 211 210 219 215 215 226 190 231 226 229 220 203 211 217 206 209 215 223 225 225 217 214 225 233 201 233 79 211 155 169 164 173 190 156 160 193 153 171 174 218 250 103 83 87 331 294 278 254 247 232 228 230 240 243 242 232 228 243 245 245 247
310 309 302 295 298 289 255 229 213 198 186 194 193 214 204 209 206 204 184 226 194 208 199 211 201 223 217 211 232 230 239 221 200 208 223 205 226 218 205 206 206 217 216 226 234 231 240 69 69 74 70 76 89 24 140 203 188 158 159 167 196 147 175 217 145 212 238 55 74 116 62 278 252 343 174 185 216 217 229 242 241 234 198 224 229 245 258
305 302 293 297 296 285 281 268 231 210 201 209 201 205 203 195 208 206 208 221 225 208 212 216 211 227 220 207 215 223 222 217 213 210 232 220 216 213 213 221 211 236 230 80 96 108 105 85 65 62 60 39 45 41 134 198 210 194 168 163 170 181 195 204 143 188 214 114 78 110 248 250 325 252 320 204 201 204 214 237 246 242 226 233 248 257 257
306 300 295 292 291 286 281 271 257 234 212 210 210 217 209 195 195 201 210 219 226 213 221 227 224 229 229 221 218 226 228 227 223 222 232 237 242 203 209 210 216 227 107 121 113 129 156 177 167 64 281 17 346 326 270 234 211 199 237 197 154 184 175 156 194 130 52 115 186 187 242 273 288 203 187 180 150 218 259 269 263 249 238 226 230 246 251
309 306 303 298 290 286 280 272 263 254 230 217 235 244 252 202 213 222 215 214 229 220 227 237 231 231 226 227 223 228 216 224 223 215 227 227 235 229 238 223 235 126 145 125 135 122 93 117 222 220 262 70 333 264 237 190 212 197 201 222 208 171 157 156 216 150 219 193 207 234 326 321 289 275 201 155 199 174 186 252 274 261 196 217 225 242 251
315 313 310 307 305 298 285 277 274 260 254 230 217 224 225 223 223 217 205 213 222 217 213 223 218 230 229 226 212 224 215 219 216 224 224 229 237 228 231 212 250 144 139 136 134 188 175 105 185 220 222 177 227 238 81 248 274 209 210 195 196 175 185 198 206 222 210 226 244 282 270 262 268 254 225 188 190 157 163 205 281 251 178 200 209 230 244
314 315 319 314 310 308 301 291 278 274 267 263 235 226 231 234 236 241 253 250 238 235 221 225 224 225 226 223 205 211 217 218 217 219 217 220 229 226 11 77 309 128 168 114 147 157 149 200 220 213 220 218 224 67 236 108 288 44 168 192 176 316 3 166 202 214 143 200 228 233 236 248 244 128 191 168 129 133 114 70 271 258 175 201 201 219 226
301 308 312 315 316 314 309 306 297 283 277 275 274 249 238 225 223 224 237 242 227 245 169 236 236 239 243 246 223 222 212 225 192 207 212 217 217 199 13 42 344 152 178 141 188 179 206 217 220 227 247 183 186 210 60 180 176 64 115 137 162 167 182 139 202 219 210 208 217 236 214 254 207 163 158 175 140 121 80 352 270 200 183 187 191 208 187
294 296 300 307 314 315 317 315 310 307 295 283 277 276 265 254 248 231 225 229 242 247 221 220 212 218 222 222 231 219 202 225 212 220 227 194 131 170 184 122 131 264 154 191 171 210 214 216 219 217 229 186 169 93 214 153 169 186 171 167 152 181 187 194 206 212 219 214 241 289 279 254 163 170 151 158 147 99 102 230 254 152 186 193 177 201 176
293 292 294 296 301 308 311 316 315 312 307 303 293 279 263 265 259 247 245 235 225 238 184 219 215 224 228 234 239 220 223 210 208 210 171 179 229 163 134 191 136 165 187 204 195 213 213 227 221 223 228 206 154 215 115 157 194 116 127 124 350 253 163 322 263 227 218 206 221 235 264 260 142 170 157 158 111 171 227 244 112 150 182 195 185 182 172
297 294 292 293 294 297 303 309 314 313 312 307 304 280 284 276 273 261 252 249 241 244 215 208 192 217 204 214 221 219 207 224 204 211 183 211 140 116 90 177 266 90 97 146 227 204 221 223 218 199 226 210 210 113 219 230 140 163 181 186 176 180 166 195 203 187 46 142 225 256 260 257 148 144 132 189 169 233 207 96 196 151 175 173 196 174 181
299 299 296 293 292 292 294 298 304 311 314 316 315 303 294 274 268 268 266 273 264 254 241 219 227 228 210 213 216 213 203 212 192 210 209 208 170 147 196 199 181 168 177 178 204 204 199 220 207 211 223 197 193 121 211 209 214 261 153 180 201 160 161 191 214 168 170 188 201 213 219 133 150 146 183 189 214 206 138 148 171 207 163 176 163 192 178
297 299 300 299 295 292 290 292 294 298 307 313 318 310 297 295 294 301 306 303 281 276 287 256 240 236 219 212 211 210 206 208 208 202 200 200 195 199 202 133 160 170 185 153 45 31 257 229 53 118 206 210 132 211 195 186 216 192 162 110 235 188 201 180 192 184 169 197 215 226 120 161 178 185 199 195 203 136 177 146 166 159 211 179 169 184 185
293 296 300 300 300 299 295 293 293 294 297 302 308 298 291 305 296 316 305 288 292 290 293 287 293 284 296 243 223 216 218 213 208 203 196 192 211 221 202 154 197 189 192 195 196 206 207 194 214 199 225 190 190 210 205 213 217 138 194 211 243 173 209 45 45 216 228 258 250 75 218 189 193 214 203 164 182 185 157 157 148 188 167 173 175 186 177
289 292 294 298 300 301 301 299 297 296 296 295 293 300 293 286 291 302 291 278 276 291 290 246 244 254 227 239 232 229 222 218 217 215 203 196 207 202 241 230 143 160 212 215 201 195 191 171 220 160 226 193 160 204 193 226 224 197 169 190 229 216 179 177 227 188 161 247 243 218 223 179 202 208 216 291 210 182 176 170 163 167 163 178 199 169 176
287 289 291 292 294 297 298 298 297 297 296 295 294 287 291 284 277 266 274 280 278 233 260 312 244 250 260 255 247 236 222 219 216 217 211 205 212 201 205 204 195 191 199 204 152 149 131 168 175 186 225 204 175 225 210 222 247 163 206 208 88 255 176 176 224 208 192 243 248 269 211 191 201 200 203 221 203 192 196 169 164 162 172 178 184 164 165
284 284 287 288 290 293 295 296 296 295 294 293 290 284 280 276 279 274 266 260 262 257 274 263 266 260 261 275 253 249 240 225 223 221 216 209 211 218 219 196 194 313 259 122 159 202 201 218 187 201 212 235 183 215 202 208 226 178 198 209 197 146 123 212 200 209 235 256 249 101 57 242 223 216 217 212 195 183 177 163 156 152 159 168 157 175 167
282 283 284 286 288 290 292 294 296 295 294 290 286 271 265 268 259 257 257 264 282 268 218 245 258 260 110 246 272 259 251 243 227 223 219 216 214 217 223 218 189 192 188 188 205 204 212 215 193 220 204 232 174 216 191 214 195 184 206 204 112 126 205 193 112 207 235 231 233 152 202 232 223 213 214 209 187 172 171 164 164 167 166 164 161 174 187
283 282 283 284 286 288 290 293 294 295 294 292 285 273 262 261 255 249 242 242 236 260 296 291 281 273 294 267 259 268 265 264 243 234 228 220 216 216 216 218 203 185 197 195 207 197 202 202 215 209 174 187 168 225 197 343 47 316 213 199 190 197 206 175 192 202 230 235 238 200 210 231 233 210 206 195 179 173 174 184 182 180 171 164 159 154 156
284 284 283 282 283 285 288 292 295 296 296 293 289 284 266 250 249 241 238 233 239 255 259 265 279 266 256 272 210 226 228 216 236 230 235 237 226 220 217 215 210 203 202 206 212 203 205 217 193 190 194 178 183 206 131 217 204 215 208 204 201 215 206 200 207 215 234 241 232 195 199 219 226 188 177 183 185 182 190 188 179 170 167 170 168 169 166
282 281 282 283 283 285 288 291 293 295 297 300 293 269 277 270 224 233 218 225 222 234 244 259 265 253 213 230 244 175 218 216 217 225 228 227 230 231 225 219 220 204 208 208 201 221 207 217 212 190 173 165 195 186 206 206 223 224 203 210 209 217 219 220 216 215 230 210 180 186 200 216 188 164 174 182 187 185 186 181 176 171 173 169 173 179 174
283 282 281 281 281 283 286 289 291 292 293 285 283 273 267 276 239 188 197 182 211 229 258 246 259 299 266 256 218 214 215 206 212 215 220 221 227 226 225 221 224 207 225 223 212 225 186 217 169 207 180 193 192 193 204 188 225 201 197 209 212 213 218 227 227 227 227 138 127 98 106 137 132 106 177 190 183 180 177 178 173 169 168 172 176 169 170
285 283 281 281 282 283 285 289 290 290 279 263 249 245 236 262 331 322 310 282 350 295 275 290 284 252 250 260 237 211 206 205 205 205 232 181 228 215 231 220 232 209 219 217 213 211 221 196 196 197 192 189 190 223 195 204 220 214 196 213 218 218 218 225 229 227 165 149 113 77 102 187 180 166 196 181 180 180 178 168 165 163 161 151 116 104 134
284 285 285 283 283 284 286 290 291 289 267 267 259 261 264 268 273 277 287 299 299 214 188 260 252 272 262 249 276 286 18 179 198 186 226 189 225 185 229 210 225 234 213 231 184 223 129 190 184 211 208 155 195 175 201 211 214 211 215 214 217 216 216 217 219 209 172 175 168 196 199 188 206 213 162 168 174 171 166 154 142 124 118 119 123 114 107
280 281 281 280 281 285 288 291 296 297 293 281 274 255 252 248 253 257 256 243 263 261 222 237 254 241 252 315 295 267 234 192 217 188 226 199 132 196 212 198 204 218 178 209 194 181 344 261 186 210 123 207 151 177 220 216 204 222 224 229 224 203 190 194 181 172 178 189 199 213 203 183 156 117 118 140 146 139 126 122 131 136 147 144 148 146 133
281 280 281 284 283 290 295 296 298 265 265 265 259 261 260 257 248 235 226 214 240 235 244 231 210 247 251 235 244 254 151 137 233 186 223 172 182 186 163 209 75 213 230 161 264 204 158 211 142 198 206 147 185 231 204 192 213 221 226 232 207 159 138 153 196 185 186 184 173 140 127 135 141 158 158 152 147 143 138 150 155 147 149 158 141 138 152
280 282 281 290 305 305 294 282 232 248 231 245 250 259 260 257 247 238 223 213 220 234 237 255 261 252 232 255 241 253 134 226 249 287 306 195 290 293 209 136 213 224 146 201 217 168 201 179 156 235 163 181 211 198 201 208 213 217 217 223 210 190 189 191 177 169 154 159 154 141 144 157 163 164 156 155 146 148 151 152 163 159 158 154 148 150 152
284 286 301 327 295 253 268 238 234 201 227 253 300 298 288 283 248 246 246 246 234 237 241 239 244 248 244 259 266 267 42 272 212 234 227 231 215 195 130 200 219 148 206 345 182 198 214 160 219 219 191 213 213 195 213 210 216 221 221 221 198 174 169 173 155 148 147 133 132 153 158 157 152 149 147 153 159 158 153 163 170 171 168 165 161 166 171
288 299 288 202 74 292 268 269 203 263 303 311 317 309 280 241 263 239 222 231 210 200 225 214 243 246 247 250 248 182 235 258 235 231 268 179 196 260 216 223 227 200 223 193 213 138 79 203 233 197 232 221 193 202 224 220 229 227 222 156 163 178 175 156 154 149 146 134 155 159 155 161 166 170 157 167 163 169 179 175 173 174 165 162 168 161 142
311 310 120 197 179 235 211 234 334 356 348 312 300 278 263 229 268 260 210 205 221 231 213 222 238 224 234 242 249 216 219 185 237 173 217 218 206 287 226 183 262 227 287 190 232 163 214 234 239 128 246 173 220 209 223 226 222 164 168 166 176 175 159 167 167 165 171 182 183 176 171 177 176 184 176 165 175 178 173 168 170 171 167 162 158 161 156
133 227 218 199 221 236 252 306 350 350 310 301 241 223 256 233 218 241 215 240 229 227 208 234 216 226 222 227 231 240 137 200 230 226 232 290 163 182 242 205 274 221 238 202 221 192 157 197 187 162 242 164 231 214 228 173 167 177 176 174 168 165 168 169 181 182 181 187 180 183 188 182 175 168 169 168 167 172 177 177 174 160 156 162 159 157 166
192 187 226 244 245 241 231 250 0 73 183 243 257 235 221 244 211 224 244 246 231 232 196 224 212 228 216 221 220 234 201 163 345 103 188 225 237 108 295 260 239 225 244 186 242 104 102 181 210 209 217 189 217 215 204 150 180 186 179 165 168 168 170 176 180 185 181 174 168 176 175 162 160 163 164 166 168 173 175 170 168 169 152 148 162 163 135
180 176 193 196 245 261 279 264 161 230 248 202 220 232 221 246 247 287 208 237 238 242 235 207 231 223 220 207 217 215 232 150 145 159 143 236 238 144 212 215 345 111 248 211 90 42 185 208 220 240 171 208 217 157 154 184 186 170 170 170 169 173 173 178 182 187 182 171 166 166 166 159 159 162 165 166 174 174 170 166 166 167 165 151 132 131 142
247 259 293 301 302 250 194 240 201 172 212 233 185 248 204 230 220 231 244 222 230 224 254 233 264 273 326 63 338 231 207 206 151 199 156 205 130 65 164 240 203 210 225 52 85 169 199 205 216 228 211 214 161 178 185 171 161 160 170 174 175 178 177 180 184 185 181 170 161 160 162 165 169 173 171 172 168 162 166 169 165 156 148 145 149 145 148
231 181 235 213 217 237 146 250 189 164 219 219 214 241 234 242 250 230 249 252 236 246 219 220 214 195 228 200 179 162 97 288 214 47 1 251 96 181 179 214 214 253 40 39 200 194 230 238 226 207 197 169 177 161 154 157 164 173 180 185 184 184 189 189 178 166 169 157 145 148 152 162 164 159 158 165 162 160 155 143 145 142 139 137 143 149 147
123 187 137 305 210 243 141 236 168 176 222 223 224 242 233 247 253 230 243 246 159 242 280 296 319 259 241 188 74 287 176 180 179 124 209 133 75 242 158 231 186 46 99 194 225 323 316 264 243 161 194 181 183 172 174 175 178 182 191 194 193 189 179 171 172 168 165 161 152 146 156 159 151 155 162 164 168 156 148 150 150 142 146 142 141 127 142
160 190 154 215 238 207 198 258 192 249 242 218 240 234 247 248 256 267 275 27 282 293 292 288 253 250 266 263 214 191 137 139 130 219 162 121 140 211 187 158 62 98 247 193 165 195 225 261 157 180 193 186 195 201 201 207 203 179 151 180 180 174 172 168 164 168 166 155 149 150 153 153 153 150 154 155 145 147 145 144 151 149 144 140 144 148 152
199 217 170 216 242 238 183 233 222 219 232 240 244 251 249 268 266 273 267 249 268 268 268 250 212 196 212 258 283 314 156 173 147 195 92 105 164 197 46 95 178 186 168 209 205 225 243 204 227 225 206 202 200 195 195 183 166 164 178 161 155 167 168 166 167 164 163 150 146 142 145 150 148 138 129 124 124 130 137 144 147 150 151 153 148 142 143
188 208 126 205 230 208 220 234 243 259 245 248 261 263 272 279 286 279 274 256 255 257 252 242 270 262 239 191 156 271 319 229 121 214 150 170 59 52 96 132 229 249 193 178 220 130 172 231 211 210 211 204 182 174 169 167 171 175 175 169 168 165 166 164 163 154 142 146 150 144 143 139 140 144 147 137 124 124 134 137 135 133 124 128 137 143 145
192 158 189 223 228 223 240 251 279 269 267 266 276 287 282 280 272 272 277 279 265 250 235 231 233 166 227 147 155 169 226 216 130 187 92 36 126 187 179 188 181 221 243 144 209 126 9 355 353 8 26 30 21 30 39 54 104 132 154 169 173 168 158 160 158 150 146 142 139 137 138 140 134 128 124 128 128 125 124 126 128 126 136 142 145 146 146
186 248 219 239 279 261 252 286 288 276 276 276 274 265 261 262 273 277 284 279 263 246 227 236 239 217 251 93 198 191 284 209 174 96 101 196 196 188 103 187 224 158 65 29 19 26 1 347 346 3 9 12 9 2 8 22 55 60 62 78 90 112 133 132 117 119 125 131 132 133 133 132 135 141 145 139 117 109 111 110 118 126 132 140 143 145 147
196 225 236 195 227 255 280 258 256 269 277 275 277 280 285 282 280 292 309 285 252 217 199 203 181 190 214 174 188 175 234 139 88 214 160 170 295 138 182 145 49 34 18 33 58 29 357 349 355 350 346 346 350 349 349 2 45 60 63 76 83 92 93 102 108 106 98 101 112 120 124 123 119 114 109 117 123 112 90 78 98 118 126 128 137 140 141
231 228 237 232 223 240 246 260 262 260 267 276 283 300 331 292 324 319 319 298 248 210 212 183 145 193 181 210 210 97 31 67 161 137 77 12 10 25 31 36 350 332 329 334 351 3 356 346 353 347 336 328 328 326 340 11 47 56 66 77 87 95 91 73 84 107 113 108 107 103 94 90 110 108 120 114 108 97 103 117 112 119 120 121 119 120 121